This is the latest recevied weather packets stored in our database for station/object YB2VNE-13. If no packets are shown the sender has not sent any weather packets the latest 10 day(s).
| Time | Temp. | Humidity | Pressure | Rain* | Wind** | Luminosity | Snow |
|---|---|---|---|---|---|---|---|
| 1787914975 | 28.33° C | 68% | 998 hPa | - | - | 0 W/m² | - |
| 1787914665 | 27.78° C | 70% | 998 hPa | - | - | 0 W/m² | - |
| 1787914355 | 27.78° C | 69% | 998 hPa | - | - | 0 W/m² | - |
| 1787914045 | 27.78° C | 69% | 998 hPa | - | - | 0 W/m² | - |
| 1787913735 | 27.78° C | 68% | 998 hPa | - | - | 0 W/m² | - |
| 1787913425 | 27.78° C | 68% | 998 hPa | - | - | 0 W/m² | - |
| 1787913115 | 28.33° C | 67% | 998 hPa | - | - | 0 W/m² | - |
| 1787912805 | 28.33° C | 66% | 997 hPa | - | - | 0 W/m² | - |
| 1787912495 | 28.33° C | 65% | 997 hPa | - | - | 0 W/m² | - |
| 1787912185 | 28.33° C | 64% | 997 hPa | - | - | 0 W/m² | - |
| 1787911875 | 28.89° C | 63% | 997 hPa | - | - | 0 W/m² | - |
| 1787911565 | 28.89° C | 63% | 997 hPa | - | - | 0 W/m² | - |
| 1787911255 | 28.89° C | 62% | 997 hPa | - | - | 0 W/m² | - |
| 1787910945 | 29.44° C | 58% | 997 hPa | - | - | 0 W/m² | - |
| 1787910635 | 30° C | 59% | 997 hPa | - | - | 0 W/m² | - |
| 1787910325 | 30° C | 58% | 997 hPa | - | - | 0 W/m² | - |
| 1787910015 | 30° C | 56% | 997 hPa | - | - | 0 W/m² | - |
| 1787909705 | 32.78° C | 49% | 997 hPa | - | - | 0 W/m² | - |
| 1787909395 | 31.67° C | 52% | 997 hPa | - | - | 0 W/m² | - |
| 1787909085 | 30.56° C | 55% | 997 hPa | - | - | 0 W/m² | - |
| 1787908779 | 31.11° C | 53% | 997 hPa | - | - | 0 W/m² | - |
| 1787908465 | 30.56° C | 51% | 997 hPa | - | - | 0 W/m² | - |
| 1787908155 | 30.56° C | 54% | 997 hPa | - | - | 0 W/m² | - |
| 1787907845 | 30° C | 57% | 997 hPa | - | - | 0 W/m² | - |
| 1787907535 | 30° C | 56% | 997 hPa | - | - | 0 W/m² | - |
* Rain since midnight (hover to see other rain measurements)
** Current wind speed in m/s (hover to see current wind gust speed)